Precipitable_Water
0.14 0.14 0.14 0.13 0.09 0.06 0.07 0.08 0.08 0.05 0.06 0.08 0.16 0.26 0.35 0.47 0.50 0.53 0.57 0.57 0.56 0.57 0.63 0.69 0.72 0.76 0.81 0.85 0.92 0.99 0.98 0.97 1.04 1.10 1.16 1.26 1.28 1.25 1.16 1.13 1.10 1.11 1.06 0.97
0.10 0.11 0.11 0.09 0.09 0.11 0.12 0.15 0.16 0.11 0.11 0.17 0.25 0.32 0.39 0.46 0.49 0.50 0.53 0.54 0.56 0.56 0.61 0.65 0.69 0.73 0.75 0.78 0.83 0.92 0.94 0.93 1.00 1.05 1.08 1.11 1.14 1.19 1.10 1.07 1.07 1.06 1.03 0.97
0.05 0.11 0.09 0.05 0.09 0.16 0.19 0.23 0.25 0.20 0.21 0.23 0.24 0.30 0.40 0.45 0.49 0.51 0.52 0.50 0.51 0.52 0.56 0.62 0.65 0.69 0.72 0.74 0.78 0.81 0.88 0.90 0.94 0.99 0.97 1.02 1.01 1.11 1.06 1.03 1.04 1.01 0.99 0.97
0.07 0.08 0.04 0.13 0.26 0.25 0.25 0.28 0.32 0.28 0.30 0.34 0.31 0.40 0.43 0.49 0.51 0.50 0.48 0.48 0.48 0.50 0.53 0.58 0.64 0.67 0.69 0.73 0.74 0.75 0.78 0.87 0.87 0.93 0.93 0.97 0.94 0.99 1.02 1.00 0.98 0.96 0.96 0.95
0.11 0.12 0.14 0.18 0.22 0.25 0.25 0.25 0.35 0.31 0.34 0.37 0.38 0.38 0.42 0.48 0.50 0.47 0.45 0.44 0.47 0.51 0.52 0.55 0.58 0.62 0.65 0.68 0.70 0.71 0.72 0.75 0.79 0.88 0.87 0.88 0.91 0.93 0.96 0.95 0.94 0.93 0.93 0.93
0.16 0.12 0.10 0.19 0.28 0.35 0.35 0.21 0.35 0.36 0.36 0.37 0.42 0.35 0.37 0.45 0.43 0.41 0.42 0.43 0.46 0.49 0.51 0.53 0.54 0.57 0.59 0.62 0.65 0.65 0.69 0.71 0.75 0.78 0.81 0.85 0.85 0.86 0.89 0.89 0.90 0.90 0.92 0.92
0.17 0.15 0.18 0.29 0.33 0.38 0.20 0.23 0.36 0.38 0.40 0.42 0.39 0.42 0.43 0.42 0.39 0.40 0.41 0.43 0.46 0.47 0.47 0.49 0.52 0.53 0.53 0.57 0.59 0.64 0.67 0.69 0.70 0.72 0.70 0.78 0.80 0.82 0.82 0.84 0.83 0.84 0.85 0.86
0.20 0.18 0.16 0.33 0.34 0.26 0.32 0.37 0.38 0.39 0.40 0.41 0.43 0.41 0.40 0.39 0.38 0.39 0.40 0.41 0.44 0.45 0.46 0.48 0.50 0.50 0.49 0.50 0.56 0.60 0.62 0.63 0.65 0.67 0.67 0.67 0.70 0.73 0.75 0.75 0.76 0.75 0.75 0.78
0.24 0.23 0.33 0.37 0.35 0.39 0.40 0.38 0.39 0.40 0.42 0.42 0.39 0.38 0.39 0.39 0.39 0.40 0.41 0.42 0.43 0.43 0.44 0.46 0.48 0.49 0.48 0.50 0.52 0.55 0.57 0.58 0.59 0.61 0.63 0.64 0.62 0.62 0.62 0.66 0.67 0.67 0.66 0.68
0.28 0.31 0.33 0.36 0.39 0.40 0.41 0.40 0.42 0.43 0.41 0.39 0.36 0.37 0.36 0.37 0.38 0.38 0.39 0.39 0.41 0.41 0.42 0.42 0.45 0.47 0.48 0.49 0.50 0.51 0.51 0.52 0.54 0.56 0.57 0.58 0.60 0.61 0.59 0.59 0.58 0.59 0.59 0.60
0.29 0.33 0.35 0.37 0.39 0.40 0.40 0.42 0.42 0.42 0.41 0.39 0.38 0.36 0.36 0.36 0.36 0.36 0.37 0.38 0.39 0.39 0.39 0.40 0.43 0.44 0.46 0.47 0.47 0.47 0.48 0.49 0.50 0.51 0.52 0.53 0.55 0.55 0.55 0.57 0.57 0.55 0.56 0.56
0.24 0.32 0.33 0.35 0.40 0.42 0.40 0.40 0.41 0.39 0.38 0.38 0.36 0.34 0.34 0.34 0.34 0.35 0.35 0.36 0.36 0.37 0.38 0.39 0.40 0.41 0.43 0.45 0.46 0.45 0.43 0.44 0.46 0.48 0.49 0.50 0.50 0.50 0.54 0.54 0.55 0.55 0.55 0.55
0.31 0.37 0.37 0.39 0.40 0.42 0.39 0.39 0.39 0.38 0.37 0.35 0.35 0.34 0.33 0.32 0.33 0.33 0.33 0.33 0.33 0.33 0.34 0.35 0.36 0.37 0.39 0.42 0.43 0.42 0.42 0.43 0.42 0.43 0.45 0.46 0.46 0.46 0.45 0.49 0.51 0.51 0.51 0.51
0.37 0.37 0.34 0.37 0.35 0.39 0.38 0.37 0.37 0.36 0.36 0.34 0.34 0.34 0.33 0.32 0.32 0.32 0.31 0.33 0.33 0.33 0.33 0.33 0.32 0.32 0.34 0.35 0.35 0.34 0.35 0.37 0.37 0.37 0.37 0.37 0.38 0.40 0.42 0.41 0.41 0.42 0.45 0.44
0.36 0.38 0.37 0.38 0.38 0.38 0.38 0.37 0.34 0.32 0.32 0.31 0.31 0.30 0.30 0.29 0.28 0.28 0.29 0.29 0.29 0.29 0.29 0.30 0.30 0.30 0.31 0.31 0.30 0.30 0.30 0.30 0.30 0.30 0.29 0.29 0.30 0.31 0.31 0.32 0.33 0.33 0.33 0.33
0.34 0.36 0.37 0.35 0.35 0.36 0.35 0.34 0.31 0.30 0.30 0.29 0.28 0.28 0.28 0.27 0.26 0.26 0.26 0.26 0.24 0.23 0.24 0.25 0.26 0.27 0.28 0.27 0.26 0.25 0.25 0.26 0.26 0.26 0.26 0.26 0.25 0.25 0.25 0.26 0.26 0.26 0.26 0.27
0.31 0.30 0.33 0.33 0.34 0.34 0.34 0.33 0.31 0.29 0.29 0.28 0.28 0.27 0.26 0.25 0.24 0.23 0.22 0.21 0.19 0.18 0.17 0.17 0.18 0.20 0.21 0.21 0.20 0.19 0.19 0.20 0.21 0.22 0.22 0.22 0.21 0.20 0.21 0.22 0.22 0.22 0.22 0.23
0.37 0.36 0.37 0.36 0.35 0.34 0.33 0.32 0.30 0.30 0.29 0.28 0.27 0.25 0.23 0.21 0.19 0.18 0.16 0.15 0.15 0.14 0.14 0.14 0.15 0.16 0.17 0.18 0.19 0.18 0.18 0.18 0.18 0.18 0.19 0.18 0.18 0.19 0.19 0.20 0.20 0.20 0.20 0.20
0.40 0.39 0.38 0.37 0.36 0.34 0.31 0.30 0.29 0.28 0.26 0.24 0.22 0.20 0.18 0.16 0.15 0.15 0.15 0.14 0.14 0.13 0.12 0.12 0.12 0.12 0.12 0.13 0.14 0.14 0.14 0.14 0.14 0.14 0.15 0.16 0.16 0.17 0.17 0.18 0.18 0.18 0.19 0.19
0.38 0.38 0.36 0.34 0.33 0.31 0.28 0.28 0.26 0.23 0.22 0.20 0.17 0.15 0.14 0.14 0.15 0.14 0.13 0.12 0.12 0.12 0.12 0.11 0.10 0.10 0.11 0.12 0.12 0.12 0.12 0.12 0.11 0.11 0.12 0.12 0.12 0.12 0.12 0.13 0.13 0.14 0.14 0.15
0.33 0.32 0.30 0.29 0.28 0.27 0.26 0.22 0.20 0.18 0.16 0.15 0.14 0.13 0.13 0.13 0.13 0.13 0.12 0.11 0.11 0.12 0.11 0.10 0.10 0.10 0.11 0.11 0.11 0.11 0.10 0.10 0.10 0.10 0.11 0.11 0.11 0.11 0.11 0.11 0.11 0.11 0.11 0.11
0.29 0.28 0.28 0.27 0.24 0.21 0.20 0.19 0.17 0.16 0.14 0.14 0.14 0.13 0.13 0.12 0.12 0.12 0.12 0.12 0.12 0.12 0.11 0.10 0.10 0.10 0.11 0.10 0.10 0.10 0.09 0.09 0.10 0.10 0.10 0.10 0.10 0.10 0.10 0.11 0.11 0.11 0.11 0.11
0.28 0.28 0.24 0.21 0.20 0.18 0.17 0.16 0.15 0.15 0.14 0.13 0.13 0.13 0.13 0.13 0.13 0.12 0.11 0.13 0.13 0.12 0.11 0.11 0.10 0.09 0.10 0.10 0.10 0.09 0.09 0.09 0.09 0.09 0.09 0.09 0.09 0.09 0.10 0.10 0.10 0.10 0.10 0.10
0.27 0.22 0.21 0.19 0.18 0.17 0.16 0.15 0.14 0.14 0.14 0.14 0.13 0.13 0.13 0.13 0.14 0.15 0.15 0.14 0.13 0.12 0.11 0.11 0.11 0.10 0.10 0.09 0.10 0.09 0.09 0.09 0.09 0.09 0.09 0.09 0.09 0.09 0.09 0.09 0.09 0.09 0.09 0.09
0.22 0.20 0.19 0.19 0.18 0.17 0.16 0.15 0.15 0.15 0.15 0.15 0.15 0.15 0.15 0.15 0.15 0.15 0.15 0.14 0.13 0.12 0.12 0.11 0.11 0.11 0.10 0.10 0.10 0.10 0.09 0.09 0.10 0.10 0.10 0.10 0.09 0.09 0.09 0.10 0.10 0.10 0.10 0.10
0.20 0.20 0.20 0.21 0.20 0.19 0.17 0.16 0.15 0.15 0.14 0.13 0.14 0.15 0.15 0.16 0.16 0.16 0.16 0.15 0.13 0.13 0.12 0.12 0.12 0.11 0.11 0.11 0.11 0.11 0.11 0.10 0.10 0.10 0.10 0.10 0.10 0.10 0.10 0.10 0.10 0.10 0.10 0.10
0.21 0.21 0.21 0.20 0.20 0.18 0.17 0.16 0.15 0.14 0.14 0.13 0.12 0.13 0.14 0.14 0.14 0.14 0.14 0.14 0.13 0.13 0.12 0.12 0.12 0.12 0.12 0.12 0.12 0.12 0.12 0.12 0.12 0.11 0.11 0.10 0.10 0.10 0.10 0.10 0.10 0.10 0.10 0.10
Wind_Speed
16 16 17 19 22 22 22 26 26 33 33 30 26 22 17 14 12 12 12 12 12 12 12 12 11 10 8 7 10 10 10 10 13 21 23 24 32 29 26 25 23 20 17 15
16 19 20 22 24 24 27 30 33 35 36 26 21 17 14 12 12 11 10 10 10 11 11 12 11 10 8 8 8 6 8 8 9 13 19 24 30 29 27 25 22 20 17 15
15 15 18 21 18 18 22 24 26 28 27 20 19 15 13 11 9 8 8 9 9 9 10 11 11 10 8 7 6 6 5 5 5 7 10 20 24 30 27 24 21 19 17 16
16 17 16 15 13 15 17 17 17 16 14 14 16 14 11 7 6 6 7 6 8 8 8 9 10 10 8 6 5 4 4 3 2 3 4 16 17 22 22 22 20 19 18 17
13 15 17 16 11 11 12 14 10 8 6 12 15 13 8 5 4 3 4 5 6 7 7 8 9 9 9 7 6 4 3 4 4 3 5 10 13 18 18 18 18 18 17 17
7 7 7 5 11 12 13 8 5 3 4 12 11 8 8 6 3 1 3 4 5 6 7 7 8 8 8 7 6 5 4 4 4 4 5 5 7 12 13 16 15 18 16 18
5 4 5 8 11 9 4 2 3 1 3 7 6 5 7 4 1 0 2 3 4 6 6 7 7 8 7 7 7 6 5 4 4 5 6 7 7 8 10 11 13 14 15 16
3 5 5 8 4 1 2 1 2 5 6 10 10 8 7 5 3 2 3 4 5 5 6 8 9 8 7 7 7 7 5 5 5 5 6 9 10 9 9 11 15 13 14 16
1 1 3 3 2 2 2 3 4 7 9 10 9 7 5 4 4 3 4 5 6 6 7 8 9 9 8 8 7 7 7 6 6 5 5 7 8 10 11 13 13 13 14 13
2 2 3 3 4 5 6 7 8 8 8 7 7 6 5 4 4 5 4 5 6 7 7 8 9 9 9 9 8 8 7 7 7 6 5 4 5 7 8 9 11 13 14 16
1 2 3 5 5 5 6 7 8 8 7 6 6 5 5 4 5 5 6 6 7 7 8 8 9 10 10 10 9 8 8 8 7 7 6 6 5 6 6 7 9 10 12 13
3 2 3 4 5 5 6 6 6 6 6 6 6 6 6 6 6 7 7 8 8 8 9 10 10 10 11 11 10 10 10 10 10 10 9 9 8 8 7 7 8 8 9 11
4 4 5 6 6 6 7 6 6 6 6 6 5 5 5 5 6 7 7 8 9 10 10 11 12 12 12 12 12 12 12 12 12 11 12 12 11 11 12 11 10 10 10 11
5 5 4 4 5 6 7 7 6 5 4 4 4 4 5 6 7 8 8 9 9 10 11 11 12 13 14 14 13 13 13 13 13 13 13 13 13 14 14 14 14 15 14 14
7 4 5 7 6 5 4 3 3 3 2 3 4 5 7 7 8 9 10 10 11 11 12 13 14 15 15 14 14 14 15 15 16 16 15 16 16 16 16 17 17 17 17 18
6 7 7 7 7 4 3 2 1 0 2 3 5 6 6 7 7 9 10 11 11 12 13 14 15 16 16 16 17 17 17 17 17 18 18 18 19 19 19 20 20 20 20 21
7 8 9 9 7 5 3 2 2 3 3 4 5 6 6 7 8 10 11 11 12 13 14 15 16 17 17 18 19 19 20 20 20 21 21 21 21 22 22 22 22 22 22 23
8 9 10 10 8 6 4 4 3 3 4 5 6 7 7 8 9 10 12 13 14 15 16 18 19 20 21 22 22 22 23 23 23 23 24 24 24 24 25 25 25 25 26 26
7 10 10 8 7 6 5 4 3 2 3 5 6 6 7 9 11 13 15 16 18 20 21 22 23 24 25 25 26 26 26 27 27 27 28 28 28 28 28 28 29 29 29 29
7 8 8 7 6 5 4 3 2 2 3 4 6 9 11 13 16 18 19 21 22 24 25 26 27 27 28 28 29 29 30 30 30 31 31 31 31 31 31 31 32 32 32 32
8 8 7 6 5 4 3 2 1 2 5 7 10 12 14 17 19 20 22 23 25 26 27 28 29 30 31 31 32 32 33 33 33 33 33 33 34 34 34 34 34 34 34 34
6 5 5 5 5 4 2 1 3 5 8 10 12 15 17 19 21 23 24 26 28 29 29 30 31 32 33 34 34 34 34 34 34 34 34 34 34 34 34 34 34 34 34 35
6 6 7 6 4 2 1 3 6 8 10 12 15 17 19 22 24 25 27 29 29 30 31 33 34 35 35 35 36 36 35 34 33 33 32 32 31 31 31 32 32 32 33 33
7 7 6 4 2 1 3 6 8 10 13 16 19 21 23 25 27 28 30 31 32 33 34 35 36 37 37 36 35 33 32 31 30 29 29 29 28 28 29 29 29 29 30 31
8 6 4 2 3 5 7 9 11 15 18 20 23 25 27 29 31 32 33 34 34 36 37 38 38 37 35 33 31 30 29 28 27 27 27 27 26 26 26 27 27 28 28 29
7 5 4 4 6 8 10 13 16 19 22 24 26 28 31 32 34 35 35 36 37 38 39 39 36 34 32 31 30 29 28 27 27 27 27 27 26 26 27 27 27 27 27 28
6 5 6 7 9 11 13 16 19 22 24 26 28 31 33 35 36 36 36 37 39 39 38 36 33 31 30 30 29 29 28 28 27 27 27 27 27 27 27 27 28 28 28 28
Wind_Direction
265 270 270 271 274 275 269 271 271 276 268 270 269 269 267 273 291 307 304 319 329 334 337 336 328 307 297 296 281 263 258 267 263 240 226 217 212 207 207 209 212 215 221 230
275 273 273 275 275 274 274 277 274 271 269 266 257 248 250 257 282 301 304 314 324 334 339 342 343 328 299 297 291 273 262 270 272 232 224 223 218 208 205 207 211 215 222 230
277 280 284 280 282 283 286 286 285 269 266 244 236 231 234 252 274 293 306 312 323 332 339 343 346 341 329 309 294 283 282 276 261 228 232 218 214 200 200 206 210 215 223 230
281 286 283 284 290 288 293 306 300 287 261 221 208 206 216 244 285 279 298 306 324 326 336 345 351 354 349 340 320 291 289 288 228 222 202 186 196 195 199 205 212 220 226 232
286 284 284 273 290 293 298 300 308 295 217 192 186 189 207 254 266 273 292 304 318 331 335 340 350 353 358 358 353 329 300 274 266 219 215 197 219 209 207 211 217 223 230 235
288 283 274 273 295 296 291 279 319 305 213 181 191 209 221 233 222 280 319 323 330 333 338 343 348 351 357 359 359 345 328 298 280 258 237 203 207 212 203 211 219 226 237 237
274 286 292 315 303 300 257 304 351 344 163 165 170 146 153 159 146 346 360 3 1 6 5 359 354 356 356 359 358 356 339 304 291 266 245 230 236 229 217 226 227 231 236 242
254 274 291 336 318 72 289 12 83 111 114 116 122 117 112 100 86 66 29 12 2 357 358 360 2 354 355 356 351 349 336 332 316 291 266 248 242 240 238 242 237 245 248 243
312 294 327 356 36 34 57 90 109 120 106 101 106 100 97 85 62 37 13 359 355 353 350 348 348 356 354 349 344 343 345 341 333 319 296 269 258 252 252 247 247 246 248 244
114 58 43 66 79 79 92 100 101 103 107 105 97 83 71 54 34 21 7 355 346 346 345 344 346 345 345 343 339 337 333 331 329 324 315 301 278 267 262 255 253 253 251 247
98 128 90 83 98 99 102 107 101 98 100 90 82 73 63 44 31 18 8 359 353 347 344 342 339 336 334 331 331 331 329 322 316 312 309 302 295 284 273 267 259 256 253 252
191 129 123 120 115 107 108 102 103 102 91 80 80 72 62 48 33 24 16 5 357 346 340 336 334 331 329 324 320 316 314 310 307 302 297 292 284 280 287 273 269 267 259 257
177 146 122 120 115 112 111 107 99 93 94 90 78 66 47 27 13 4 356 351 347 342 338 332 327 325 321 316 311 309 306 304 300 296 291 287 283 278 272 271 274 272 267 265
170 156 157 158 142 124 112 102 98 90 82 68 48 31 13 1 354 350 344 337 334 331 330 326 325 324 321 314 310 305 303 299 296 294 290 285 281 278 275 272 270 270 271 270
197 206 172 157 150 140 128 109 91 79 59 29 5 353 345 344 341 338 333 333 330 327 326 323 323 321 317 313 309 305 301 297 292 289 286 283 280 276 274 272 270 269 268 268
186 186 182 176 177 177 181 175 161 357 345 338 337 335 335 336 334 332 331 329 325 323 323 321 320 316 313 310 307 305 301 297 292 288 285 282 280 277 275 272 271 270 270 268
204 206 200 197 196 200 212 237 276 298 312 325 327 325 325 323 324 325 326 326 326 325 323 321 318 315 313 310 306 303 301 297 293 288 285 283 281 278 276 273 271 269 269 268
220 209 201 200 204 212 234 252 271 287 303 312 317 319 322 325 323 323 325 323 321 321 321 318 315 312 310 308 305 302 299 297 293 289 286 284 282 279 276 273 271 269 269 268
198 192 191 193 199 207 221 237 253 274 298 309 318 323 322 322 320 317 316 316 315 312 311 310 310 308 307 305 303 300 298 295 292 289 286 283 281 279 277 275 272 270 269 268
141 152 164 172 174 180 181 202 232 289 314 320 320 319 318 317 315 314 312 311 310 309 308 308 307 306 305 303 302 300 297 295 291 288 286 283 280 278 276 274 272 270 269 268
144 147 150 156 161 167 171 177 206 311 316 316 317 317 317 317 317 316 315 314 313 311 310 309 308 306 304 303 301 299 297 294 292 289 285 283 281 279 276 274 272 270 268 267
162 164 165 162 155 149 154 265 314 318 321 322 322 321 321 320 319 318 317 315 314 313 311 310 309 308 306 304 302 300 298 295 292 289 287 284 281 278 275 273 271 269 268 267
169 161 154 152 153 160 290 322 324 325 326 326 325 324 323 322 321 320 319 318 316 314 312 311 310 309 307 304 302 300 298 295 292 289 287 284 281 278 276 274 272 270 269 268
165 160 160 161 169 294 320 322 325 325 324 323 323 321 321 322 321 320 319 318 316 315 314 313 311 309 308 306 303 301 299 296 293 291 288 286 283 280 277 275 273 271 270 269
170 172 181 219 280 306 314 316 319 321 321 321 321 321 320 319 318 319 318 317 316 315 314 313 312 310 308 306 304 302 300 298 295 293 290 287 284 282 280 277 275 274 272 270
189 207 235 269 293 302 308 313 317 321 321 321 322 323 323 321 319 317 317 316 316 316 315 314 312 310 308 307 304 302 300 298 296 294 291 289 285 283 281 280 277 276 274 272
215 238 268 287 297 304 309 313 318 320 322 322 322 323 323 323 323 321 318 317 317 317 316 315 314 312 310 308 306 301 300 299 297 295 292 290 286 284 283 281 278 276 274 273